Williston, ND

9:57 AM CST on December 13, 2019 (GMT -0600)
Sloulin International

Weather History for KISN - August, 2019

Change the Weather History Date:

Monday, August 19, 2019

  Actual Average Record
Temperature  
Mean Temperature 71 °F 69 °F  
Max Temperature 93 °F 84 °F 98 °F (1948)
Min Temperature 49 °F 54 °F 38 °F (1978)
Degree Days  
Heating Degree Days 0 1  
Month to date heating degree days 17 19  
Since 1 June heating degree days 102 163  
Since 1 July heating degree days 32 43  
Cooling Degree Days 6 5  
Month to date cooling degree days 96 121  
Year to date cooling degree days 340 384  
Since 1 June cooling degree days 334 371  
Growing Degree Days 20 (Base 50)    
Moisture  
Dew Point 52 °F    
Average Humidity 58    
Maximum Humidity 93    
Minimum Humidity 23    
Precipitation  
Precipitation 0.00 in 0.05 in 1.92 in (1913)
Month to date precipitation 1.88 0.91  
Year to date precipitation 11.54 10.58  
Sea Level Pressure  
Sea Level Pressure 29.80 in    
Wind  
Wind Speed 8 mph (West)    
Max Wind Speed 20 mph    
Max Gust Speed 29 mph    
Visibility 10 miles    
Events      
T = Trace of Precipitation, MM = Missing Value Source: NWS Daily Summary

Daily Weather History Graph

Daily Weather History Graph

Search for Another Location

Airport or City:

Astronomy

Aug. 19, 2019 Rise Set
Actual Time 6:54 AM CDT 9:01 PM CDT
Civil Twilight 6:20 AM CDT 9:34 PM CDT
Nautical Twilight 5:38 AM CDT 10:16 PM CDT
Astronomical Twilight 4:50 AM CDT 11:03 PM CDT
Moon 11:05 PM CDT (8/19) 10:52 AM CDT (8/19)
Length of Visible Light 15h 14m
Length of Day
14h 06m
Waning Gibbous, 85% of the Moon is Illuminated
Aug 19
Waning Gibbous
Aug 23
Last Quarter
Aug 30
New
Sep 5
First Quarter
Sep 13
Full

Hourly Weather History & Observations

Time (CDT) Temp. Heat Index Dew Point Humidity Pressure Visibility Wind Dir Wind Speed Gust Speed Precip Events Conditions
12:52 AM 57.9 °F - 50.0 °F 75% 29.79 in 10.0 mi West 9.2 mph - N/A   Clear
1:52 AM 60.1 °F - 50.0 °F 69% 29.79 in 10.0 mi SSW 6.9 mph - N/A   Clear
2:52 AM 55.0 °F - 48.9 °F 80% 29.81 in 10.0 mi Calm Calm - N/A   Clear
3:52 AM 53.1 °F - 48.9 °F 86% 29.83 in 10.0 mi NNW 3.5 mph - N/A   Clear
4:52 AM 53.1 °F - 48.9 °F 86% 29.84 in 10.0 mi Calm Calm - N/A   Clear
5:52 AM 51.1 °F - 48.0 °F 89% 29.85 in 10.0 mi NNE 4.6 mph - N/A   Clear
6:52 AM 50.0 °F - 48.0 °F 93% 29.86 in 10.0 mi NE 3.5 mph - N/A   Clear
7:52 AM 54.0 °F - 50.0 °F 86% 29.85 in 10.0 mi NE 4.6 mph - N/A   Clear
8:52 AM 60.1 °F - 52.0 °F 75% 29.85 in 10.0 mi Calm Calm - N/A   Partly Cloudy
9:52 AM 66.0 °F - 55.0 °F 68% 29.84 in 10.0 mi SE 4.6 mph - N/A   Mostly Cloudy
10:52 AM 71.1 °F - 55.0 °F 57% 29.83 in 10.0 mi SSE 5.8 mph - N/A   Mostly Cloudy
11:52 AM 75.9 °F - 55.0 °F 48% 29.82 in 10.0 mi SE 8.1 mph - N/A   Clear
12:52 PM 81.0 °F 80.8 °F 55.9 °F 42% 29.80 in 10.0 mi South 11.5 mph - N/A   Clear
1:52 PM 84.9 °F 83.7 °F 55.9 °F 37% 29.77 in 10.0 mi SSE 10.4 mph 18.4 mph N/A   Clear
2:52 PM 89.1 °F 87.1 °F 55.0 °F 31% 29.75 in 10.0 mi South 6.9 mph - N/A   Clear
3:52 PM 90.0 °F 87.9 °F 55.0 °F 30% 29.74 in 10.0 mi SSW 11.5 mph - N/A   Clear
4:52 PM 91.0 °F 89.7 °F 57.0 °F 32% 29.72 in 10.0 mi SSW 9.2 mph - N/A   Clear
5:52 PM 93.0 °F 91.1 °F 55.0 °F 28% 29.72 in 10.0 mi WSW 11.5 mph - N/A   Partly Cloudy
6:52 PM 91.0 °F - 48.9 °F 23% 29.74 in 10.0 mi WNW 17.3 mph 24.2 mph N/A   Clear
7:52 PM 86.0 °F 84.0 °F 53.1 °F 32% 29.75 in 10.0 mi WNW 12.7 mph - N/A   Clear
8:52 PM 75.0 °F - 55.0 °F 50% 29.78 in 10.0 mi WNW 9.2 mph - N/A   Clear
9:52 PM 73.0 °F - 53.1 °F 49% 29.80 in 10.0 mi NNW 10.4 mph - N/A   Clear
10:52 PM 73.9 °F - 51.1 °F 45% 29.83 in 10.0 mi NNW 10.4 mph - N/A   Clear
11:52 PM 72.0 °F - 53.1 °F 51% 29.86 in 10.0 mi North 9.2 mph - N/A   Clear